Theta_e
357 361 366 367 367 367 365 364 362 362 361 361 361 361 360 362 362 364 363 363 364 364 363 361 361 360 357 357 354 355 355 354 354 353 353 353 352 352 351 351 352 351 350
361 362 365 367 367 366 365 364 362 361 361 361 361 361 361 362 364 364 363 363 364 363 362 360 359 357 356 355 355 355 355 354 354 354 354 355 355 354 353 353 352 351 349
361 363 362 366 367 365 364 363 362 360 360 360 361 361 362 363 364 363 363 363 363 362 362 360 358 356 355 355 354 354 354 354 354 356 357 359 356 356 356 356 356 357 352
363 362 360 365 365 365 364 362 361 361 360 360 361 361 362 363 363 363 363 362 360 360 361 360 357 355 354 354 354 353 352 352 353 355 356 356 351 357 355 354 356 356 356
362 362 363 365 365 365 363 361 361 361 361 361 361 362 362 363 364 363 363 362 359 356 356 355 355 354 355 354 352 351 351 353 356 357 359 353 353 354 353 355 358 358 357
360 360 363 364 364 364 364 363 361 361 361 361 361 362 362 363 363 362 363 362 360 356 355 354 354 354 354 353 352 353 353 354 356 357 355 353 354 350 348 351 355 358 362
360 360 361 363 364 364 364 363 361 361 360 359 361 362 362 362 362 362 362 360 359 358 357 355 354 353 353 351 350 351 352 353 353 352 350 351 349 351 350 351 352 355 359
359 361 359 363 362 362 362 362 361 360 359 360 361 361 362 361 362 361 360 359 358 357 355 354 352 352 351 349 350 352 352 353 350 349 349 346 350 353 352 354 356 357 357
359 359 356 356 362 362 361 361 360 359 359 359 360 360 361 361 361 360 359 358 357 355 353 352 350 350 349 349 351 352 353 353 349 343 339 338 352 355 354 356 357 359 359
359 356 351 353 352 357 361 360 360 360 360 359 360 360 359 359 359 358 357 356 354 353 352 350 349 348 348 350 351 352 352 351 341 343 338 349 355 356 356 359 358 360 360
356 354 350 346 346 347 350 358 358 359 359 359 358 358 354 350 352 354 355 356 354 353 352 350 350 350 352 353 354 354 352 343 345 344 346 354 356 354 355 358 359 359 359
352 353 351 347 346 345 345 353 351 351 350 346 348 352 346 348 348 347 354 355 354 353 353 353 352 352 351 340 347 352 347 348 347 348 351 354 353 353 354 355 355 354 353
354 353 351 352 353 346 346 345 345 344 343 348 349 352 351 349 350 346 350 346 349 352 347 347 346 343 344 346 344 345 349 349 348 348 352 353 354 353 353 351 350 349 348
354 354 352 351 354 354 350 343 344 341 343 346 348 353 357 350 352 347 345 343 346 343 345 346 342 350 351 350 350 351 351 351 351 349 350 349 348 347 345 344 343 343 343
352 354 354 354 356 360 358 348 349 347 344 346 348 352 352 349 352 347 347 344 345 343 344 344 345 351 352 351 351 352 351 354 352 349 349 346 343 341 339 338 338 338 338
353 355 356 355 359 356 357 360 356 356 353 350 350 350 352 354 357 346 348 345 343 343 345 347 348 350 351 352 351 354 354 354 352 350 347 344 342 339 336 334 332 332 333
355 356 358 358 358 361 358 358 357 354 353 351 351 355 352 355 357 357 344 343 342 349 351 352 353 353 352 353 353 351 349 350 347 349 346 343 341 336 332 330 330 330 330
356 355 360 358 355 363 363 358 356 354 353 352 352 355 354 353 354 352 344 343 342 350 349 348 349 351 354 350 347 346 348 349 347 346 345 341 338 333 334 335 328 331 328
356 357 355 357 355 359 366 359 361 365 355 352 352 354 356 354 350 348 342 342 352 347 348 355 353 353 349 345 341 342 345 345 347 343 344 341 337 333 329 333 336 334 324
358 357 356 353 358 359 360 362 357 357 354 352 351 352 358 354 349 349 344 352 352 350 353 356 353 348 343 339 338 338 345 343 345 343 341 338 334 333 329 331 327 327 326
358 355 353 355 357 357 356 354 353 350 351 349 351 357 356 351 349 351 346 356 356 348 350 351 348 343 338 338 336 337 340 343 345 342 341 337 334 328 328 326 328 327 327
356 354 354 357 358 359 356 357 353 351 348 349 352 355 354 351 352 350 356 352 347 342 342 342 340 338 338 337 330 331 328 330 333 338 336 332 329 325 325 328 327 330 330
352 353 354 358 359 361 360 358 357 355 353 347 350 349 352 353 355 355 353 349 344 341 336 334 335 333 332 336 331 327 321 317 318 323 327 323 329 324 327 328 328 329 330
350 353 355 360 356 358 364 355 357 347 343 348 349 352 352 353 352 351 348 343 341 341 338 336 335 333 332 329 329 326 327 323 313 311 321 323 327 328 333 326 327 329 329
349 352 355 354 357 357 360 358 352 351 342 344 346 348 348 348 347 346 343 341 339 337 334 328 329 330 328 325 322 322 324 321 326 317 311 315 322 324 324 326 327 326 328
350 352 352 352 356 357 360 360 353 341 339 340 344 343 339 342 341 341 340 338 339 338 335 332 329 329 328 327 325 323 318 316 315 315 313 318 317 321 324 326 326 325 326
Wind_Speed
16 21 15 14 16 19 20 19 18 18 18 18 17 16 15 15 15 13 15 14 13 12 11 12 11 10 9 8 7 8 7 6 5 5 4 4 3 2 2 3 6 6 7
22 20 15 14 15 19 19 19 19 18 18 18 17 16 15 15 13 14 13 12 13 13 13 12 11 10 9 8 8 7 6 5 3 3 4 6 5 4 4 6 7 7 3
20 20 18 14 16 18 19 19 19 18 18 18 17 15 15 15 13 13 12 11 12 13 12 10 9 9 8 8 7 6 5 4 4 6 9 9 12 11 6 7 8 9 7
21 20 19 16 17 18 18 18 18 18 18 18 17 15 14 14 13 12 11 11 12 12 11 10 9 8 8 7 6 5 4 3 5 8 10 12 6 14 8 6 8 9 9
20 20 19 18 18 18 19 18 18 18 18 18 17 16 15 13 13 12 10 10 11 11 10 9 8 8 7 6 5 4 2 4 7 11 15 5 8 8 2 5 10 11 10
19 21 21 19 18 18 19 19 19 19 18 17 16 16 15 13 12 10 9 9 9 9 8 8 8 7 6 5 4 3 4 5 9 14 9 4 5 7 8 8 9 12 13
19 19 19 18 18 19 19 19 19 18 18 18 16 15 14 13 11 10 9 9 8 8 8 7 6 5 5 4 3 3 4 7 11 13 9 4 9 10 10 10 11 10 11
18 20 19 17 18 17 19 19 18 18 17 17 16 15 13 12 11 10 9 9 8 7 7 6 6 5 4 4 3 2 5 8 11 12 8 6 9 11 9 9 10 11 11
18 19 18 17 17 15 16 18 18 18 17 16 15 13 12 11 10 10 8 8 8 7 6 6 5 4 4 3 2 4 6 9 11 9 10 3 10 10 11 11 11 12 12
17 19 18 16 18 16 14 14 15 16 16 16 14 13 12 12 10 9 8 8 7 6 5 5 5 5 4 4 5 7 10 13 13 12 6 8 13 14 12 12 12 12 12
17 19 19 19 16 17 16 14 14 14 14 15 15 13 12 10 10 11 7 12 8 7 6 6 5 5 6 11 12 13 13 9 6 6 4 13 14 13 12 11 12 13 12
20 21 19 18 16 15 13 13 12 13 11 12 12 13 10 9 9 8 11 10 8 7 7 7 7 8 10 10 10 14 8 5 9 5 9 15 15 13 12 12 13 13 13
20 17 21 18 16 18 14 11 7 8 8 8 13 11 10 8 7 7 6 7 7 9 8 9 8 8 9 5 5 5 6 9 5 5 10 17 16 15 14 14 14 14 13
21 20 20 20 15 14 12 11 12 9 9 7 7 10 5 5 6 8 6 8 7 8 7 5 6 2 2 4 5 4 6 6 6 6 10 17 15 13 13 15 15 15 16
18 19 21 18 15 11 13 11 11 10 10 11 10 11 7 8 6 6 5 5 6 7 6 6 4 3 5 6 4 4 7 6 7 5 5 13 13 12 12 13 16 15 15
13 16 20 21 16 15 12 11 9 8 10 9 10 10 8 5 5 6 5 6 5 4 6 4 5 4 6 2 1 4 5 6 8 7 7 7 11 11 10 10 11 13 15
10 17 16 18 19 15 14 11 9 10 10 9 9 12 11 8 7 7 6 7 6 5 4 2 2 6 5 1 4 4 5 7 6 7 7 7 5 10 7 8 8 11 12
10 18 11 11 16 16 13 12 10 10 10 9 9 9 10 9 8 6 6 5 6 4 6 7 6 2 1 3 2 4 5 5 3 3 4 5 6 8 0 6 6 11 8
14 17 15 11 15 15 14 12 10 12 9 9 8 9 10 9 8 6 5 6 3 5 4 4 4 3 3 1 3 3 6 6 7 6 4 7 5 7 7 8 9 16 2
22 17 17 13 13 15 13 9 10 11 8 8 8 7 11 8 8 6 5 4 2 4 3 6 0 6 5 5 4 5 6 7 7 6 5 7 8 6 8 9 8 7 3
23 22 18 18 15 12 13 11 10 11 9 9 8 10 10 8 8 6 4 7 8 8 6 5 4 4 4 6 4 4 3 6 5 5 5 5 6 8 9 9 5 6 7
22 20 18 20 17 13 11 10 10 10 10 9 8 8 8 8 8 7 9 9 9 8 8 7 5 3 3 5 3 7 4 7 7 4 3 5 5 7 8 8 7 7 5
20 21 20 20 18 15 15 10 8 9 8 8 9 8 7 9 8 9 10 9 8 5 6 6 4 2 2 4 4 4 4 4 8 3 4 4 5 5 5 8 7 8 7
19 20 20 19 19 14 15 13 14 11 12 8 9 8 9 10 10 9 9 9 8 5 7 5 3 3 2 1 2 2 2 2 4 7 6 7 6 4 4 6 5 7 9
21 20 20 20 21 17 13 13 12 9 10 8 10 13 9 7 8 9 9 8 7 6 6 5 3 3 3 2 2 2 1 4 4 5 9 8 7 8 6 4 6 6 7
22 23 20 23 20 19 17 16 14 18 15 13 12 9 6 6 6 8 9 9 8 8 7 6 5 6 6 5 4 4 4 3 5 5 8 9 9 8 5 3 5 7 8
Wind_Direction
139 143 132 145 146 145 144 146 144 143 140 138 136 141 140 136 137 130 130 130 125 126 133 133 124 120 114 112 101 94 90 87 93 107 119 132 146 172 224 254 270 247 128
134 149 136 146 149 147 146 148 146 144 141 138 141 143 144 142 141 129 132 129 126 129 131 128 124 124 125 122 117 113 115 122 137 166 194 200 190 205 242 261 281 338 5
136 150 155 147 150 147 148 148 145 144 141 141 143 146 147 145 141 133 131 130 131 133 133 130 125 126 124 119 113 118 131 153 188 222 232 247 179 184 212 253 274 290 295
143 153 158 149 151 151 149 145 144 143 142 142 144 150 149 147 142 137 136 134 132 132 134 133 129 121 113 112 125 139 158 185 228 248 246 241 302 158 182 240 266 277 277
154 158 143 152 151 150 147 143 143 143 145 144 148 151 152 148 145 140 136 131 133 132 131 128 118 114 121 128 140 150 184 244 266 267 255 354 1 96 105 288 278 267 268
157 161 137 150 149 151 145 144 144 146 145 146 151 152 151 150 144 133 131 129 132 130 124 116 119 128 131 136 150 186 228 269 288 262 225 82 293 89 43 1 321 303 297
157 157 151 147 148 152 148 145 145 146 146 150 152 153 151 146 138 131 132 129 131 130 126 124 126 136 145 148 182 226 290 304 287 304 333 317 61 63 29 348 329 314 295
157 137 151 148 150 151 147 145 145 145 148 151 153 150 144 138 134 131 129 131 133 129 132 139 143 153 154 181 208 283 308 311 297 298 294 317 56 46 12 338 318 306 299
157 141 155 162 147 148 148 146 146 147 148 150 148 142 135 132 130 130 133 134 131 134 144 149 157 168 180 204 283 301 289 282 282 284 291 330 67 39 360 330 318 311 305
153 150 162 164 163 163 155 141 142 146 148 144 141 135 131 129 133 138 137 141 137 143 152 162 174 188 199 227 246 256 260 267 256 267 293 66 52 31 356 340 332 328 321
160 157 165 166 165 167 157 146 137 146 142 138 136 135 147 176 175 160 116 136 145 153 166 174 190 199 226 237 227 231 240 255 341 287 25 71 53 23 355 349 350 349 348
169 162 166 167 161 163 151 151 159 159 167 171 169 169 187 176 190 190 126 140 156 171 187 195 205 220 233 249 193 228 235 338 267 317 77 71 55 30 6 8 10 8 6
173 166 167 168 167 165 151 165 156 166 160 170 174 179 211 164 163 179 146 171 180 194 200 196 197 226 223 339 317 305 1 269 329 359 75 73 61 41 19 17 18 16 12
174 169 165 166 171 166 144 174 159 166 165 162 176 189 206 178 159 217 181 185 202 170 229 202 210 36 284 234 268 317 289 348 355 324 83 86 76 59 32 21 18 13 12
171 168 168 161 171 164 151 179 167 167 170 169 170 191 182 209 171 195 194 212 187 200 176 215 251 210 226 212 255 6 349 314 316 345 63 99 98 85 57 26 12 5 5
149 173 172 163 168 174 174 175 161 168 165 169 169 182 189 237 156 201 183 232 208 239 228 211 211 224 224 0 101 30 332 320 350 1 352 112 106 92 75 52 15 0 359
157 162 182 165 163 174 173 167 172 164 170 176 178 166 197 215 159 242 217 222 214 221 283 239 251 207 249 114 61 10 348 330 342 359 328 5 110 105 91 58 18 356 359
123 156 152 170 163 171 170 172 180 163 176 183 172 161 193 198 170 217 212 211 225 233 203 235 228 240 48 54 7 347 326 302 316 282 70 4 22 348 179 57 14 335 357
136 160 146 173 163 166 168 174 182 149 193 182 175 164 182 189 177 216 230 201 190 239 238 45 10 346 78 354 337 313 285 282 304 34 19 1 339 352 335 357 353 321 72
146 156 154 174 175 169 166 171 179 147 195 176 177 171 156 191 181 206 210 108 228 258 23 45 44 47 31 1 330 308 275 341 326 17 3 337 355 328 331 331 342 13 112
152 158 165 181 181 167 168 176 170 159 183 173 175 137 153 184 176 180 227 76 66 70 62 76 136 86 70 6 331 316 346 274 342 359 343 299 342 357 320 353 345 348 340
161 159 167 182 168 166 162 181 176 167 169 161 146 146 166 154 148 169 105 121 124 122 112 94 45 90 44 42 347 286 345 333 358 26 31 357 3 324 354 325 346 337 335
163 165 172 179 157 168 165 189 154 152 139 152 126 157 141 144 138 144 144 137 137 86 96 81 69 39 24 58 13 34 347 331 340 13 298 327 353 338 326 343 8 327 6
170 172 169 162 151 167 179 157 162 158 165 119 143 115 132 145 143 132 125 125 124 138 126 111 75 76 338 346 74 72 324 338 324 323 8 334 335 314 13 349 10 339 347
174 171 166 145 154 164 168 158 164 139 109 122 143 150 145 126 116 137 130 115 117 108 101 107 152 163 125 67 350 354 268 278 225 287 313 329 324 335 330 318 12 298 346
182 164 155 159 161 158 159 158 130 133 142 140 155 143 122 126 119 88 105 108 131 127 124 109 121 94 69 51 13 359 354 338 333 324 307 321 329 322 298 45 304 9 346